This demonstration page uses our WeatherBlox Daily Observations layout. Learn more.

Left ArrowRight Arrow

Hourly Observations for May 10, 2021

Temp ( °F °C ) Dew Point ( °F °C ) Humidity (%) Winds ( mph kmh ) Pressure ( in mb ) Visibility ( mi km ) Precip ( " mm )
12:15 am 00:15 Clear 41 4.9 35 1.6 79 79 N N/A 30.23 1024 10 16 N/A
12:35 am 00:35 Clear 41 4.9 35 1.7 80 80 N N/A 30.22 1023 10 16 N/A
12:55 am 00:55 Clear 39 3.9 34 1 82 82 N N/A 30.23 1024 10 16 N/A
1:15 am 01:15 Clear 38 3.5 33 0.8 83 83 N N/A 30.22 1023 10 16 N/A
1:35 am 01:35 Clear 38 3.6 34 1 83 83 N N/A 30.22 1023 10 16 N/A
1:55 am 01:55 Clear 38 3.3 34 1 85 85 N N/A 30.22 1024 10 16 N/A
2:15 am 02:15 Clear 37 2.7 33 0.6 86 86 N N/A 30.22 1023 10 16 N/A
2:35 am 02:35 Clear 37 2.7 34 1 89 89 NW 6 9 30.22 1023 10 16 N/A
2:55 am 02:55 Clear 36 2.1 33 0.6 90 90 N N/A 30.23 1024 10 16 N/A
3:15 am 03:15 Clear 36 2.1 33 0.3 88 88 N N/A 30.23 1024 10 16 N/A
3:35 am 03:35 Clear 37 2.7 34 1 89 89 N N/A 30.23 1024 10 16 N/A
3:55 am 03:55 Clear 35 1.5 32 -0.1 89 89 N N/A 30.24 1024 10 16 N/A
4:15 am 04:15 Clear 34 1.1 32 undefined 92 92 N N/A 30.24 1024 10 16 N/A
4:35 am 04:35 Clear 35 1.4 32 0.1 91 91 N N/A 30.25 1024 10 16 N/A
4:55 am 04:55 Clear 35 1.9 33 0.4 90 90 N N/A 30.25 1024 10 16 N/A
5:15 am 05:15 Clear 36 2.3 34 1 91 91 N N/A 30.24 1024 10 16 N/A
5:35 am 05:35 Clear 35 1.8 33 0.5 91 91 N N/A 30.25 1024 10 16 N/A
5:55 am 05:55 Clear 36 2 33 0.7 91 91 N N/A 30.25 1024 10 16 N/A
6:15 am 06:15 Clear 35 1.7 33 0.5 92 92 NNW 3 6 30.27 1025 10 16 N/A
6:35 am 06:35 Sunny 34 1.2 32 0.1 92 92 N N/A 30.28 1026 10 16 N/A
6:55 am 06:55 Sunny 35 1.8 33 0.6 92 92 N N/A 30.28 1025 10 16 N/A
7:15 am 07:15 Sunny 36 2.4 34 1.1 91 91 N N/A 30.27 1025 10 16 N/A
7:35 am 07:35 Sunny 38 3.6 36 2 89 89 N 5 7 30.26 1025 10 16 N/A
7:55 am 07:55 Sunny 41 4.9 37 2.5 85 85 N N/A 30.26 1025 10 16 N/A
8:15 am 08:15 Sunny 44 6.4 37 3 79 79 NNE 3 6 30.26 1025 10 16 N/A
8:35 am 08:35 Sunny 44 6.8 37 2.9 76 76 N N/A 30.25 1024 10 16 N/A
8:55 am 08:55 Sunny 45 7.2 37 2.9 74 74 N N/A 30.25 1024 10 16 N/A
9:15 am 09:15 Sunny 46 7.6 37 2.8 72 72 NE 5 7 30.24 1024 10 16 N/A
9:35 am 09:35 Sunny 47 8.5 37 2.9 68 68 NE 5 7 30.24 1024 10 16 N/A
9:55 am 09:55 Sunny 49 9.2 37 2.9 65 65 ENE 3 6 30.23 1024 10 16 N/A
10:15 am 10:15 Sunny 50 9.8 37 3 63 63 NE 5 7 30.22 1024 10 16 N/A
10:35 am 10:35 Sunny 50 10 36 2.3 59 59 ENE 3 6 30.22 1023 10 16 N/A
10:55 am 10:55 Partly Cloudy 51 10.8 36 2.1 55 55 ENE 5 7 30.22 1023 10 16 N/A
11:15 am 11:15 Cloudy 52 11 35 1.7 53 53 ENE 5 7 30.22 1023 10 16 N/A
11:35 am 11:35 Cloudy 53 11.6 36 2.1 52 52 ENE 6 9 30.21 1023 10 16 N/A
11:55 am 11:55 Partly Cloudy 54 12 35 1.8 50 50 E 7 11 30.21 1023 10 16 N/A
12:15 pm 12:15 Partly Cloudy 54 12.2 35 1.8 49 49 NE 8 13 30.20 1023 10 16 N/A
12:35 pm 12:35 Partly Cloudy 55 12.7 36 2.2 49 49 E 8 13 30.19 1022 10 16 N/A
12:55 pm 12:55 Partly Cloudy 56 13.6 38 3.1 49 49 NNE 7 11 30.17 1022 10 16 N/A
1:15 pm 13:15 Partly Cloudy 56 13.2 36 2.4 48 48 NE 9 15 30.17 1022 10 16 N/A
1:35 pm 13:35 Partly Cloudy 57 14 37 3 48 48 NE 7 11 30.16 1021 10 16 N/A
1:55 pm 13:55 Mostly Cloudy 56 13.6 37 2.5 47 47 E 7 11 30.16 1021 10 16 N/A
2:15 pm 14:15 Partly Cloudy 57 14.1 36 2.3 45 45 E 7 11 30.15 1021 10 16 N/A
2:35 pm 14:35 Partly Cloudy 57 14 36 2.3 45 45 E 6 9 30.14 1021 10 16 N/A
2:55 pm 14:55 Mostly Cloudy 57 14.1 36 2 44 44 NNE 7 11 30.14 1021 10 16 N/A
3:15 pm 15:15 Mostly Cloudy 59 15 37 2.8 44 44 NE 8 13 30.12 1020 10 16 N/A
3:35 pm 15:35 Partly Cloudy 58 14.3 37 2.5 45 45 NE 12 19 30.14 1020 10 16 N/A
3:55 pm 15:55 Mostly Cloudy 59 14.9 37 2.9 45 45 NNE 12 19 30.12 1020 10 16 N/A
4:15 pm 16:15 Partly Cloudy 59 14.9 37 2.9 45 45 N 8 13 30.11 1020 10 16 N/A
4:35 pm 16:35 Mostly Cloudy 58 14.5 37 2.9 46 46 NE 8 13 30.12 1020 10 16 N/A
4:55 pm 16:55 Cloudy 58 14.3 36 2.2 44 44 N 10 17 30.13 1020 10 16 N/A
5:15 pm 17:15 Cloudy 58 14.3 36 2.4 45 45 NNE 9 15 30.12 1020 10 16 N/A
5:35 pm 17:35 Cloudy 58 14.3 37 2.6 46 46 N 10 17 30.12 1020 10 16 N/A
5:55 pm 17:55 Cloudy 57 14.1 36 2.2 45 45 NNE 13 20 30.13 1020 10 16 N/A
6:15 pm 18:15 Cloudy 57 13.8 37 2.8 48 48 NNE 12 19 30.12 1020 10 16 N/A
6:35 pm 18:35 Cloudy 57 13.7 37 2.5 47 47 N 18 30 30.13 1020 10 16 N/A
6:55 pm 18:55 Cloudy 55 12.8 36 2.1 48 48 N 15 24 30.14 1021 10 16 N/A
7:15 pm 19:15 Cloudy 55 12.7 35 1.7 47 47 N 15 24 30.16 1021 10 16 N/A
7:35 pm 19:35 Cloudy 54 12.2 35 1.7 49 49 N 18 30 30.17 1022 10 16 N/A
7:55 pm 19:55 Cloudy with Drizzle 53 11.5 38 3.3 57 57 NNE 9 15 30.19 1022 10 16 N/A
8:15 pm 20:15 Cloudy with Light Rain 52 11.1 37 2.9 57 57 NNE 10 17 30.19 1022 10 16 N/A
8:35 pm 20:35 Cloudy with Light Rain 51 10.4 39 3.7 63 63 E 9 15 30.20 1023 7 11 0.02 0.51
8:55 pm 20:55 Cloudy with Light Rain 50 10.2 38 3.4 63 63 E 12 19 30.20 1023 10 16 0.03 0.76
9:15 pm 21:15 Cloudy 50 10 40 4.6 69 69 E 8 13 30.20 1023 10 16 N/A
9:35 pm 21:35 Cloudy 50 9.8 42 5.5 75 75 ESE 3 6 30.20 1023 10 16 N/A
9:55 pm 21:55 Cloudy 51 10.3 41 4.9 69 69 N N/A 30.22 1023 10 16 N/A
10:15 pm 22:15 Cloudy 49 9.6 43 6.1 79 79 N N/A 30.24 1024 10 16 N/A
10:35 pm 22:35 Cloudy 49 9.3 43 6 80 80 N N/A 30.24 1024 10 16 N/A
10:55 pm 22:55 Partly Cloudy 48 8.7 43 5.9 83 83 N N/A 30.24 1024 10 16 N/A
11:15 pm 23:15 Clear 46 7.8 42 5.6 86 86 N N/A 30.25 1024 10 16 N/A
11:35 pm 23:35 Mostly Cloudy 46 8 41 4.9 81 81 N 6 9 30.25 1024 10 16 N/A
11:55 pm 23:55 Cloudy 46 8 43 6.3 89 89 N 8 13 30.25 1024 10 16 N/A

Powered by AerisWeather